Location: Knowlton
(51.2333°N, 1.2667°E)
Time: 10:01:04
(UTC+00:00)

USA-17 - Pass Details

Date: 18 April 2021
Orbit: 388 x 1775 km, 63.3° (Epoch: 05 May)

Event Time Altitude Azimuth Distance (km) Brightness Sun altitude
Rises 19:47:51 0° 213° (SSW) 2,771 8.5 -8.2°
Reaches altitude 10° 19:50:18 10° 209° (SSW) 1,718 7.4 -8.5°
Maximum altitude 19:53:54 56° 131° (SE) 523 4.4 -9.0°
Drops below altitude 10° 19:56:56 10° 52° (NE) 1,454 6.8 -9.4°
Sets 19:58:53 0° 48° (NE) 2,290 7.8 -9.6°
